"Pseudo-MPEC" for P2183oh

Created 2020 Oct 18 16:07:42 UT using Find_Orb

Click here for an explanation of pseudo-MPECs

 
 Astrometry: 
     P2183oh  C2020 10 15JYUUk'7xGl+DXIrk^Astrometry7]pJxo6qFN;x4redacted;q-CF52
     P2183oh  C2020 10 15b4Z;54-@Xej*1NvnxclicklH6nd/,[#Owk/8'xEGVek;vt7Dr7k@F52
     P2183oh  C2020 10 15'ciE[herexah3=1/'I6%I85h]PWgb*X-$_Jm*,FEtYforckjMr:cF52
     P2183oh  C2020 10 15Q=Ug+9=IJ_e.qM3Ww;);W`X#*+uxIMexplanation;$nFq1IvJ5*F52

Station data:
(F52) Pan-STARRS 2, Haleakala  (N20.707384 W156.255910)  US/Hawaii. 1.8-m
   Ritchey-Chrétien + CCD.

Orbital elements:  P2183oh
   Perihelion 2020 Nov 12.698363 +/- 1025 TT = 16:45:38 (JD 2459166.198363)
Epoch 2020 Oct 16.0 TT = JDT 2459138.5   Earth MOID: 0.6496   AutoNEOCP
M 353.46615348 +/- 53               (J2000 ecliptic)
n   0.23589287 +/- 0.138            Peri.  298.81720 +/- 80
a   2.59413652 +/- 1.01             Node   105.26080 +/- 52
e   0.3739747 +/- 0.215             Incl.    7.57364 +/- 45
P   4.18                   H 20.5   G  0.15   U 11.5  SR
q 1.62399484 +/- 2.28    Q 3.56427819 +/- 87
From 4 observations 2020 Oct. 15 (49.9 min); mean residual 0".06
Residuals in arcseconds: 
201015 F52  .01+  .10+    201015 F52  .03-  .05-    
201015 F52  .00   .12-    201015 F52  .02+  .07+    

Ephemerides (geocentric):
Date (UTC) HH   RA              Dec         delta   r     elong  mag " sig PA
---- -- -- --  -------------   -----------  ------ ------ -----  --- ---- ---
2020 10 18 16  02 45 19.003   -03 03 06.62  .66997 1.6370 158.1 21.5  534   2
2020 10 18 17  02 45 18.008   -03 03 12.76  .66987 1.6370 158.2 21.5  546   2
2020 10 18 18  02 45 17.011   -03 03 18.88  .66977 1.6370 158.2 21.5  558   2
2020 10 18 19  02 45 16.010   -03 03 24.97  .66967 1.6369 158.2 21.4  571   2
2020 10 18 20  02 45 15.008   -03 03 31.03  .66957 1.6369 158.2 21.4  583   3
2020 10 18 21  02 45 14.002   -03 03 37.07  .66947 1.6368 158.3 21.4  596   3
2020 10 18 22  02 45 12.993   -03 03 43.08  .66938 1.6368 158.3 21.4  610   3
2020 10 18 23  02 45 11.982   -03 03 49.07  .66928 1.6367 158.3 21.4  623   3
2020 10 19 00  02 45 10.969   -03 03 55.03  .66918 1.6367 158.3 21.4  637   3
2020 10 19 01  02 45 09.952   -03 04 00.96  .66908 1.6367 158.3 21.4  652   3
2020 10 19 02  02 45 08.933   -03 04 06.87  .66898 1.6366 158.4 21.4  667   3
2020 10 19 03  02 45 07.911   -03 04 12.75  .66889 1.6366 158.4 21.4  682   3
2020 10 19 04  02 45 06.886   -03 04 18.60  .66879 1.6365 158.4 21.4  697   3
2020 10 19 05  02 45 05.859   -03 04 24.43  .66869 1.6365 158.4 21.4  714   4
2020 10 19 06  02 45 04.829   -03 04 30.23  .66859 1.6364 158.5 21.4  730   4
2020 10 19 07  02 45 03.796   -03 04 36.01  .66850 1.6364 158.5 21.4  748   4
2020 10 19 08  02 45 02.761   -03 04 41.76  .66840 1.6364 158.5 21.4  765   4
2020 10 19 09  02 45 01.723   -03 04 47.48  .66831 1.6363 158.5 21.4  784   4
2020 10 19 10  02 45 00.682   -03 04 53.18  .66821 1.6363 158.6 21.4  803   4
2020 10 19 11  02 44 59.639   -03 04 58.84  .66812 1.6362 158.6 21.4  822   4
2020 10 19 12  02 44 58.593   -03 05 04.49  .66802 1.6362 158.6 21.4  842   4
2020 10 19 13  02 44 57.544   -03 05 10.10  .66793 1.6362 158.6 21.4  863   4
2020 10 19 14  02 44 56.493   -03 05 15.69  .66783 1.6361 158.7 21.4  885   5
2020 10 19 15  02 44 55.439   -03 05 21.25  .66774 1.6361 158.7 21.4  908   5
2020 10 19 16  02 44 54.382   -03 05 26.78  .66765 1.6360 158.7 21.4  931   5
2020 10 19 17  02 44 53.323   -03 05 32.29  .66755 1.6360 158.7 21.4  956   5
2020 10 19 18  02 44 52.261   -03 05 37.77  .66746 1.6359 158.8 21.4  981   5
2020 10 19 19  02 44 51.197   -03 05 43.22  .66737 1.6359 158.8 21.4 1007   5
2020 10 19 20  02 44 50.130   -03 05 48.64  .66728 1.6359 158.8 21.4 1035   5
2020 10 19 21  02 44 49.060   -03 05 54.04  .66718 1.6358 158.8 21.4 1064   5
2020 10 19 22  02 44 47.988   -03 05 59.41  .66709 1.6358 158.9 21.4 1094   6
2020 10 19 23  02 44 46.914   -03 06 04.75  .66700 1.6357 158.9 21.4 1125   6
2020 10 20 00  02 44 45.836   -03 06 10.07  .66691 1.6357 158.9 21.4 1158   6
2020 10 20 01  02 44 44.757   -03 06 15.36  .66682 1.6357 158.9 21.4 1192   6
2020 10 20 02  02 44 43.674   -03 06 20.62  .66673 1.6356 158.9 21.4 1229   6
2020 10 20 03  02 44 42.589   -03 06 25.85  .66664 1.6356 159.0 21.4 1267   6
2020 10 20 04  02 44 41.502   -03 06 31.05  .66655 1.6355 159.0 21.4 1307   6
2020 10 20 05  02 44 40.412   -03 06 36.23  .66646 1.6355 159.0 21.4 1349   6
2020 10 20 06  02 44 39.319   -03 06 41.38  .66637 1.6355 159.0 21.4 1393   7
2020 10 20 07  02 44 38.224   -03 06 46.50  .66628 1.6354 159.1 21.4 1440   7
2020 10 20 08  02 44 37.127   -03 06 51.59  .66619 1.6354 159.1 21.4 1490   7
2020 10 20 09  02 44 36.027   -03 06 56.66  .66610 1.6353 159.1 21.4 1543   7
2020 10 20 10  02 44 34.924   -03 07 01.70  .66602 1.6353 159.1 21.4 1599   7
2020 10 20 11  02 44 33.819   -03 07 06.70  .66593 1.6353 159.2 21.4 1659   7
2020 10 20 12  02 44 32.711   -03 07 11.68  .66584 1.6352 159.2 21.4 1723   7
2020 10 20 13  02 44 31.601   -03 07 16.64  .66575 1.6352 159.2 21.4 1791   7
2020 10 20 14  02 44 30.489   -03 07 21.56  .66567 1.6351 159.2 21.4 1865   8
2020 10 20 15  02 44 29.374   -03 07 26.46  .66558 1.6351 159.2 21.4 1944   8